COSMOS 2522 (752)

Last updated on Thu Nov 21 2024 00:03:12 GMT+0000 (Coordinated Universal Time)

1 42939U 17055A 24325.21929114 .00000008 00000+0 00000+0 0 9996 2 42939 64.0776 211.4377 0006711 233.4641 126.5523 2.13101924 55740
UTC large
Height (km)
Speed (km/s)
/
Latitude / Longitude
Inclination (degrees)
Orbital Period (minutes)
Azimuth
Elevation
Range (km)
Doppler Factor

Next 0 passes for location: London (51.5072 / 0.1276)

Sorry there are no passes over London.